Location: Kershaw
(34.5481°N, 80.5823°W)
Time: 01:38:36
(UTC+00:00)

Altair - Pass Details

Date: 03 October 2022
Orbit: 1501 x 1682 km, 47.2° (Epoch: 05 December)

Event Time Altitude Azimuth Distance (km) Brightness Sun altitude
Exits shadow 10:26:01 11° 247° (WSW) 3,680 8.9 -11.6°
Maximum altitude 10:35:19 68° 330° (NNW) 1,728 7.7 -9.7°
Drops below altitude 10° 10:45:20 10° 53° (NE) 3,921 10.5 -7.7°
Sets 10:48:35 0° 56° (NE) 4,923 11.2 -7.0°
